DateTimeUTC,F1_A11,F1_S11,BsB_S11,BsG_S11,BsR_S11,BbsB_S11,BbsG_S11,BbsR_S11,BaB_A11,BaG_A11,BaR_A11,Tu_S11,T_S11,Uu_S11,U_S11,P_S11,T1_A11
2021-04-12T15:00:00Z,00000200,20000000,,,,,,,-000.65,-000.11,0000.15,19.1,25.8,03.2,02.1,0666.3,31.2
2021-04-12T15:01:00Z,00000200,20000000,,,,,,,0000.10,-000.27,-000.38,19.1,25.8,03.2,02.1,0666.3,31.2
2021-04-12T15:02:00Z,00000200,20000000,,,,,,,-000.18,0000.04,0000.07,19.1,25.8,03.2,02.1,0666.3,31.2
2021-04-12T15:03:00Z,00000200,60000000,,,,,,,0000.92,0000.35,0000.58,19.1,25.8,03.2,02.1,0666.3,31.2
2021-04-12T15:04:00Z,00000200,40000000,0001.85,0001.06,0000.75,0000.14,0000.10,0000.54,0000.58,0000.99,0000.47,19.2,25.7,03.1,02.1,0667.2,31.2
2021-04-12T15:05:00Z,00000200,00000000,0002.31,0001.26,0000.94,0000.04,0000.30,0000.37,0000.98,0000.34,0000.75,19.3,25.7,03.1,02.1,0667.3,31.2
2021-04-12T15:06:00Z,00000200,00000000,0002.36,0001.45,0000.68,-000.27,-000.21,0000.32,0000.78,0001.02,0000.16,19.3,25.7,03.1,02.1,0667.3,31.2
2021-04-12T15:07:00Z,00000200,00000000,0002.76,0001.38,0000.77,0000.35,0000.18,0000.02,0000.88,0000.62,0000.82,19.3,25.7,03.2,02.1,0667.3,31.2
2021-04-12T15:08:00Z,00000200,00000000,0002.42,0001.22,0001.21,-000.15,0000.32,0000.21,0000.42,0000.42,0000.32,19.3,25.7,03.2,02.1,0667.3,31.2
2021-04-12T15:09:00Z,00000200,00000000,0002.05,0001.40,0000.83,0000.42,0000.07,0000.26,0000.93,0000.53,0000.77,19.3,25.7,03.1,02.1,0667.3,31.2
2021-04-12T15:10:00Z,00000200,00000000,0001.94,0001.31,0000.74,0000.42,-000.01,0000.25,0001.04,0001.12,0000.67,19.3,25.7,03.1,02.1,0667.3,31.2
2021-04-12T15:11:00Z,00000200,00000000,0002.53,0001.06,0000.90,0001.09,0000.23,0000.24,0000.82,0000.61,0000.56,19.3,25.7,03.2,02.2,0667.3,31.2
2021-04-12T15:12:00Z,00000200,00000000,0002.39,0001.16,0000.67,0000.29,-000.10,0000.26,0000.62,0001.03,0000.18,19.3,25.7,03.2,02.2,0667.2,31.2
2021-04-12T15:13:00Z,00000200,00000000,0002.31,0001.29,0000.89,0000.09,0000.30,0000.19,0000.95,0000.78,0001.08,19.3,25.7,03.2,02.2,0667.3,31.2
2021-04-12T15:14:00Z,00000200,00000000,0002.55,0001.11,0000.89,0000.55,0000.12,-000.03,0000.61,0000.41,0000.26,19.3,25.7,03.3,02.2,0667.2,31.2
2021-04-12T15:15:00Z,00000200,00000000,0002.19,0001.19,0001.02,-000.04,0000.42,0000.14,0000.81,0000.76,0000.39,19.3,25.7,03.2,02.2,0667.2,31.2
2021-04-12T15:16:00Z,00000200,00000000,0002.48,0001.45,0000.96,0000.36,0000.50,0000.18,0000.78,0000.33,0000.65,19.4,25.8,03.3,02.2,0667.3,31.2
2021-04-12T15:17:00Z,00000200,00000000,0002.47,0001.11,0001.04,0000.34,0000.36,0000.15,0000.37,0000.86,0000.03,19.4,25.8,03.1,02.1,0667.3,31.2
2021-04-12T15:18:00Z,00000200,00000000,0002.16,0001.37,0001.00,0000.35,0000.51,0000.40,0000.88,0000.49,0000.98,19.3,25.8,03.1,02.1,0667.3,31.2
2021-04-12T15:19:00Z,00000200,00000000,0002.46,0001.22,0000.97,0000.37,0000.33,0000.23,0000.53,0000.76,0000.32,19.4,25.8,03.2,02.1,0667.1,31.2
2021-04-12T15:20:00Z,00000200,00000000,0002.15,0001.18,0001.08,0000.18,0000.14,0000.37,0001.10,0000.65,0000.80,19.4,25.8,03.1,02.1,0667.1,31.2
2021-04-12T15:21:00Z,00000200,00000000,0002.72,0001.48,0000.89,0000.30,0000.15,-000.11,0001.15,0001.01,0000.19,19.4,25.8,03.1,02.1,0667.1,31.2
2021-04-12T15:22:00Z,00000200,00000000,0002.44,0001.17,0000.76,0000.18,0000.03,0000.19,0000.55,0000.63,0000.90,19.4,25.8,03.1,02.1,0667.1,31.2
2021-04-12T15:23:00Z,00000200,00000000,0002.43,0001.58,0000.96,0000.36,0000.16,0000.03,0000.93,0001.20,0000.71,19.4,25.8,03.3,02.2,0667.1,31.2
2021-04-12T15:24:00Z,00000200,00000000,0002.01,0001.39,0001.11,0000.15,0000.33,0000.31,0000.59,0000.03,-000.09,19.4,25.8,03.2,02.2,0667.2,31.2
2021-04-12T15:25:00Z,00000200,00000000,0002.33,0001.48,0000.88,0000.28,0000.45,0000.60,0000.86,0000.74,0000.94,19.4,25.8,03.2,02.2,0667.0,31.2
2021-04-12T15:26:00Z,00000200,00000000,0002.62,0001.54,0001.15,0000.03,0000.30,0000.16,0000.72,0000.62,0000.52,19.4,25.8,03.2,02.2,0667.1,31.2
2021-04-12T15:27:00Z,00000200,00000000,0002.34,0001.08,0000.66,0000.34,0000.24,0000.13,0000.27,0000.76,0000.37,19.4,25.8,03.2,02.2,0667.1,31.2
2021-04-12T15:28:00Z,00000200,00000000,0002.47,0001.21,0001.18,-000.08,0000.14,0000.26,0001.19,0000.84,0000.69,19.4,25.8,03.1,02.1,0667.1,31.2
2021-04-12T15:29:00Z,00000200,00000000,0002.08,0001.50,0000.99,0000.60,0000.32,0000.14,0000.88,0000.55,0000.50,19.4,25.8,03.2,02.1,0667.1,31.2
2021-04-12T15:30:00Z,00000200,00000000,0002.16,0001.14,0000.85,0000.31,0000.20,-000.11,0000.04,0000.60,0000.34,19.4,25.8,03.0,02.1,0667.0,31.2
2021-04-12T15:31:00Z,00000200,00000000,0001.97,0001.48,0000.96,-000.10,0000.32,0000.38,0000.49,0000.32,0000.48,19.4,25.8,02.9,02.0,0667.1,31.2
2021-04-12T15:32:00Z,00000200,00000000,0002.73,0001.19,0001.05,0000.12,0000.23,0000.13,0001.15,0001.00,0000.52,19.4,25.8,02.9,02.0,0667.0,31.2
2021-04-12T15:33:00Z,00000200,00000000,0001.92,0001.47,0000.89,0000.54,0000.44,0000.41,0001.13,0000.64,0000.71,19.4,25.8,03.0,02.0,0667.1,31.2
2021-04-12T15:34:00Z,00000200,00000000,0002.42,0001.30,0001.14,0000.16,0000.18,0000.31,0000.39,0000.46,0000.48,19.4,25.8,03.0,02.0,0667.0,31.2
2021-04-12T15:35:00Z,00000200,00000000,0001.85,0001.11,0001.01,-000.00,0000.08,0000.22,0000.44,0000.43,0000.34,19.4,25.8,03.0,02.0,0667.0,31.1
2021-04-12T15:36:00Z,00000200,00000000,0002.78,0001.33,0000.85,0000.46,0000.23,0000.35,0001.30,0000.76,0000.80,19.4,25.8,03.0,02.0,0666.9,31.1
2021-04-12T15:37:00Z,00000200,00000000,0001.98,0001.10,0001.22,0000.49,0000.19,0000.21,0000.66,0001.47,0000.46,19.4,25.8,02.9,02.0,0666.9,31.1
2021-04-12T15:38:00Z,00000200,00000000,0002.12,0001.21,0000.90,0000.55,0000.18,0000.13,0000.95,0000.45,0000.34,19.4,25.8,03.0,02.0,0667.0,31.1
2021-04-12T15:39:00Z,00000200,00000000,0002.46,0001.29,0000.88,0000.23,0000.29,-000.06,0000.50,0000.44,0000.94,19.4,25.8,03.0,02.1,0667.0,31.2
2021-04-12T15:40:00Z,00000200,00000000,0002.06,0001.45,0000.72,0000.80,0000.24,0000.30,0001.09,0000.53,0000.39,19.4,25.8,02.9,02.0,0667.0,31.1
2021-04-12T15:41:00Z,00000200,00000000,0002.56,0001.29,0001.04,0000.37,0000.29,0000.20,0000.45,0000.81,0000.54,19.3,25.8,03.0,02.1,0667.0,31.1
2021-04-12T15:42:00Z,00000200,00000000,0002.66,0001.52,0001.00,0000.60,0000.28,0000.57,0000.63,0000.51,0000.10,19.3,25.8,02.9,02.0,0666.9,31.1
2021-04-12T15:43:00Z,00000200,00000000,0002.95,0001.33,0000.80,0000.09,0000.07,0000.13,-000.00,-000.11,0000.40,19.3,25.8,02.9,01.9,0667.0,31.2
2021-04-12T15:44:00Z,00000200,00000000,0001.66,0001.64,0001.16,-000.23,0000.11,0000.38,0000.53,0000.58,-000.03,19.3,25.8,02.7,01.8,0667.0,31.1
2021-04-12T15:45:00Z,00000200,00000000,0002.24,0001.29,0001.05,0000.13,0000.35,0000.17,0000.32,0000.56,0000.69,19.3,25.8,02.7,01.8,0667.0,31.1
2021-04-12T15:46:00Z,00000200,00000000,0002.19,0000.92,0000.67,0000.53,0000.30,0000.44,0001.23,0000.54,0000.77,19.3,25.8,02.6,01.8,0667.0,31.2
2021-04-12T15:47:00Z,00000200,00000000,0002.61,0001.32,0000.74,-000.00,0000.20,-000.15,0000.49,0000.90,0000.39,19.3,25.8,02.7,01.8,0667.0,31.1
2021-04-12T15:48:00Z,00000200,00000000,0002.14,0001.26,0001.11,0000.16,0000.28,0000.35,0001.50,0001.19,0000.39,19.3,25.8,02.8,01.9,0667.0,31.1
2021-04-12T15:49:00Z,00000200,00000000,0002.63,0001.30,0001.03,0000.32,0000.13,0000.26,0000.50,0000.56,0001.10,19.3,25.8,02.8,01.9,0667.0,31.2
2021-04-12T15:50:00Z,00000200,00000000,0002.24,0000.86,0001.03,0000.49,0000.36,0000.05,0000.84,0000.88,0000.68,19.3,25.7,02.8,01.9,0667.0,31.1
2021-04-12T15:51:00Z,00000200,00000000,0002.71,0001.19,0000.76,0000.04,0000.07,0000.30,0000.82,0000.38,0000.32,19.3,25.7,02.8,01.9,0667.0,31.1
2021-04-12T15:52:00Z,00000200,00000000,0002.14,0001.62,0000.84,-000.28,0000.42,0000.04,0000.74,0000.93,0000.65,19.3,25.7,02.8,01.9,0667.0,31.1
2021-04-12T15:53:00Z,00000200,00000000,0001.97,0001.61,0000.98,0000.21,0000.26,0000.23,0000.82,0000.87,0000.45,19.2,25.7,02.7,01.9,0667.0,31.1
2021-04-12T15:54:00Z,00000200,00000000,0002.31,0001.23,0000.84,0000.28,0000.40,-000.17,0000.56,0000.74,0000.30,19.3,25.7,02.8,01.9,0667.0,31.1
2021-04-12T15:55:00Z,00000200,00000000,0002.57,0001.17,0001.07,0000.33,0000.30,0000.09,0000.71,0000.06,0000.51,19.3,25.7,02.7,01.8,0667.1,31.1
2021-04-12T15:56:00Z,00000200,00000000,0002.36,0001.20,0001.11,0000.60,0000.47,0000.45,0000.54,0000.70,0000.20,19.3,25.7,02.8,01.9,0667.0,31.1
2021-04-12T15:57:00Z,00000200,40000000,,,,,,,0000.53,0000.65,0000.63,19.3,25.8,02.2,01.5,0666.8,31.1
2021-04-12T15:58:00Z,00000200,60000000,,,,,,,-000.36,-000.43,-000.38,19.0,25.8,02.6,01.7,0666.0,31.1
2021-04-12T15:59:00Z,00000200,20000000,,,,,,,0000.60,0000.46,0000.32,19.0,25.9,02.6,01.7,0666.0,31.1
